Location: Braslov?e
(46.2897°N, 15.0389°E)
Time: 12:11:01
(UTC+00:00)

Daily predictions for brighter satellites

Satellite Brightness Start Highest point End
(mag) Time Altitude Azimuth Time Altitude Azimuth Time Altitude Azimuth
Cosmos 2360 Rocket 4.5 15:41:04 10° WNW 15:43:31 13° NW 15:45:57 10° N
USA 281 4.5 15:39:39 10° E 15:43:53 19° NE 15:48:08 10° N
Cosmos 2333 Rocket 4.1 15:39:32 10° W 15:44:01 23° NW 15:48:31 10° N
Cosmos 2219 Rocket 4.0 15:41:46 10° W 15:46:18 24° NW 15:50:50 10° N
Cosmos 2285 Rocket 4.1 15:42:04 10° NNW 15:48:22 55° ENE 15:54:34 10° SE
COSMO-SKYMED 1 4.5 15:47:43 10° ENE 15:49:10 11° E 15:50:36 10° ESE
TELKOM 3 4.1 15:47:04 10° WNW 15:49:51 37° N 15:52:15 10° ENE
COSMOS 2428 4.5 15:46:25 10° WSW 15:51:09 26° NW 15:55:55 10° N
BREEZE-M TANK 4.3 15:46:40 10° WNW 15:53:33 42° SSW 15:56:49 10° SE
USA 267 4.0 15:47:51 10° ENE 15:53:40 36° N 15:59:29 10° WNW
X-37B 2.0 15:51:06 10° SW 15:53:55 29° SSE 15:56:43 10° E
PAYLOAD B 4.2 15:49:00 10° SSE 15:54:33 73° ENE 16:00:07 10° NNW
Cosmos 1805 Rocket 4.0 15:54:48 10° NNW 15:59:14 67° W 16:03:36 10° S
Meteor 1-4 Rocket 3.8 15:56:52 10° SE 15:59:44 22° E 16:02:33 10° NE
Cosmos 1356 3.6 15:57:21 10° NNW 16:00:47 78° W 16:04:11 10° S
Meteor 1-20 Rocket 4.3 15:56:56 10° N 16:02:45 60° ENE 16:08:28 10° SSE
Cosmos 1328 Rocket 4.1 15:58:52 10° SSE 16:02:49 37° E 16:06:49 10° NNE
Cosmos 2181 Rocket 4.2 15:56:47 10° SSE 16:02:57 52° E 16:09:05 10° NNE
BREEZE-M DEB (TANK) 4.4 15:58:56 10° W 16:03:07 71° N 16:18:26 10° E
Cosmos 1939 Rocket 4.1 16:00:50 10° ESE 16:03:40 19° ENE 16:06:30 10° NNE
Cosmos 389 Rocket 2.8 16:02:25 10° SSW 16:05:48 67° W 16:09:13 10° N
CZ-4 R/B 3.2 16:05:25 11° ENE 16:06:03 11° ENE 16:07:25 10° NE
Cosmos 2237 Rocket 3.3 16:00:48 10° SW 16:06:08 42° NW 16:11:30 10° NNE
Cosmos 1666 Rocket 3.5 16:02:12 10° N 16:06:38 71° E 16:11:04 10° SSE
NOAA 11 4.5 16:02:48 10° SE 16:07:55 44° ENE 16:13:04 10° N
Cosmos 44 3.9 16:03:02 10° NW 16:08:20 72° WSW 16:13:43 10° SSE
PSLV R/B 4.5 16:04:39 10° S 16:08:42 62° WSW 16:12:45 10° NNW
CZ-4B R/B 3.1 16:03:46 10° SSE 16:09:02 68° ENE 16:14:18 10° N
CZ-3B R/B 3.4 16:09:04 10° SSE 16:10:03 11° SE 16:10:53 10° SE
Cosmos 1602 4.4 16:06:28 10° N 16:10:04 34° ENE 16:13:37 10° SE
H-2A R/B 2.6 16:07:42 10° S 16:11:56 78° WSW 16:16:02 10° NNW
Cosmos 1943 4.4 16:10:08 10° SSE 16:14:29 23° E 16:18:07 13° NE
Cosmos 2369 Rocket 2.5 16:10:23 10° NNW 16:15:51 45° NE 16:21:15 10° SE
ADEOS Rocket 3.9 16:09:31 10° N 16:17:16 73° WNW 16:24:54 10° SSW
Cosmos 1943 Rocket 2.1 16:11:56 10° NNW 16:17:31 71° ENE 16:23:05 10° SE
NOAA 12 4.1 16:13:22 10° SSE 16:18:41 78° ENE 16:24:01 10° NNW
CENTAUR R/B 4.1 16:16:38 10° SE 16:19:09 13° ESE 16:20:30 12° E
CZ-2D R/B 4.5 16:18:11 10° ESE 16:21:03 21° ENE 16:23:57 10° NNE
H-2A R/B 2.0 16:17:22 10° NNE 16:21:37 88° E 16:25:56 10° SSW
Okean O Rocket 1.5 16:21:09 10° SSE 16:25:30 82° ENE 16:29:55 10° NNW
Cosmos 1782 3.1 16:22:52 10° SSE 16:26:39 45° E 16:30:27 10° NNE
Okean-O 3.8 16:24:01 10° ESE 16:27:17 21° ENE 16:30:35 10° NNE
Cosmos 1633 Rocket 3.2 16:26:29 10° N 16:30:52 79° W 16:35:12 10° S
ISS -2.7 16:28:25 10° WNW 16:31:29 32° N 16:32:58 22° NE
Cosmos 1933 3.6 16:28:17 10° SSW 16:32:19 72° W 16:36:25 10° N
Cosmos 2218 Rocket 3.9 16:31:09 10° N 16:37:21 87° E 16:43:31 10° S
SKYMED 2 4.2 16:34:31 14° NE 16:37:42 34° E 16:41:38 10° SSE
Cosmos 2366 rocket 3.9 16:32:06 10° N 16:38:19 85° E 16:44:28 10° S
ERS-2 2.5 16:36:10 17° NE 16:38:43 42° E 16:42:11 10° S
Meteor 1-25 Rocket 4.5 16:33:31 10° NNW 16:39:10 75° W 16:44:51 10° S
Envisat 4.5 16:37:06 10° SSW 16:41:51 40° W 16:46:38 10° NNW
Cosmos 489 Rocket 4.4 16:36:56 10° S 16:43:05 72° ESE 16:49:19 10° NNE
Lacrosse 5 rocket 2.3 16:45:08 10° W 16:48:28 33° NNW 16:50:15 20° NNE
Cosmos 773 Rocket 4.3 16:43:40 10° SSW 16:48:54 69° WNW 16:54:13 10° NNE
Cosmos 371 Rocket 4.5 16:45:43 10° N 16:49:17 23° NE 16:49:17 23° NE
SL-23 DEB 4.1 16:46:06 10° SW 16:49:42 76° SSE 16:52:39 26° ENE
NOSS 3-2 (A) 3.9 16:46:24 10° S 16:51:27 36° ESE 16:54:01 25° ENE
FengYun 1-2 T 4.4 16:50:24 10° S 16:55:55 74° WSW 17:01:27 10° NNW
Feng Yun 1-1 Rocket 4.2 16:50:17 10° SSE 16:56:00 77° ENE 17:01:37 10° NNW
OE (NEXTSAT) 4.3 16:54:02 10° W 16:57:30 79° S 16:58:30 43° ESE
CZ-4B R/B 1.2 16:56:26 23° N 16:58:13 84° WNW 17:01:23 10° SSW
SL-16 R/B 3.2 16:53:52 10° SW 16:59:14 44° NW 17:04:40 10° NNE
USA 215 3.7 16:59:21 26° ENE 17:02:37 43° SE 17:08:46 10° SSW
BREEZE-M DEB (TANK) 2.1 17:01:35 10° W 17:03:26 52° WNW 17:03:26 52° WNW
Cosmos 1500 3.1 17:02:39 10° N 17:06:28 65° E 17:10:16 10° SSE
YAOGAN 1 3.1 17:09:19 38° NE 17:09:19 38° NE 17:12:44 10° N
USA 238 DEB 3.9 17:04:23 10° S 17:10:34 46° ESE 17:13:06 32° ENE
USA 238 3.9 17:04:29 10° S 17:10:40 46° ESE 17:13:10 32° ENE
Cosmos 1656 Rocket 3.6 17:05:48 10° NNW 17:11:27 67° ENE 17:16:58 10° SE
SL-24 DEB 4.1 17:07:22 10° N 17:12:08 81° E 17:16:49 10° S
Cosmos 1470 Rocket 4.5 17:09:08 10° NNW 17:13:19 49° W 17:17:28 10° SSW
MOS 1 Rocket 3.9 17:13:25 33° NE 17:15:21 45° E 17:20:28 10° S
STPSAT 2 (USA 217) 4.5 17:13:42 10° SSW 17:18:14 80° ESE 17:19:43 42° NNE
Cosmos 158 Rocket 3.8 17:15:06 10° S 17:19:57 58° ESE 17:20:55 48° ENE
Cosmos 2263 4.2 17:14:38 10° NNW 17:20:17 84° WSW 17:25:53 10° SSE
Cosmos 1515 Rocket 4.1 17:16:09 10° SSW 17:20:29 58° WNW 17:24:52 10° N
CZ-2C R/B 2.8 17:15:46 10° SSE 17:20:41 66° ENE 17:25:28 10° N
Cosmos 1934 Rocket 4.1 17:16:06 10° N 17:22:16 49° ENE 17:28:20 10° SSE
SWAS 4.5 17:18:40 10° SSW 17:22:56 78° WNW 17:24:10 45° NNE
Cosmos 923 Rocket 3.9 17:18:11 10° S 17:23:19 65° ESE 17:24:50 44° NE
Cosmos 1238 Rocket 2.9 17:21:29 10° N 17:25:30 72° E 17:30:23 10° SSE
COSMO-SKYMED 1 2.6 17:23:06 22° N 17:25:52 77° WNW 17:30:11 10° SSW
Cosmos 1689 Rocket 4.5 17:29:01 17° SSW 17:29:01 17° SSW 17:29:48 10° SSW
USA 281 3.1 17:20:50 10° SE 17:27:20 68° ENE 17:33:52 10° NNW
CSL-04 Debris 4.3 17:27:30 47° E 17:28:11 50° ENE 17:33:30 10° N
SAR-Lupe-4 3.7 17:29:13 70° NW 17:29:26 72° WNW 17:33:00 10° SSW
Nadezhda 3 Rocket 3.9 17:23:23 10° S 17:29:45 83° E 17:36:09 10° N
X-37B 1.7 17:27:08 10° WSW 17:29:28 44° WSW 17:29:28 44° WSW
Helios 1A Rocket 3.5 17:33:25 44° N 17:33:25 44° N 17:36:14 10° NNW
Meteor 2-6 Rocket 4.1 17:27:18 10° S 17:32:53 87° W 17:37:14 17° N
Cosmos 2228 Rocket 3.0 17:28:28 10° S 17:33:00 88° W 17:34:29 43° N
H-2A R/B 2.0 17:35:18 60° E 17:35:31 61° ENE 17:40:35 10° N
USA 267 3.4 17:34:10 44° ENE 17:35:58 57° NNE 17:42:22 10° NW
Cosmos 1812 2.9 17:33:02 10° SSW 17:36:35 70° WSW 17:36:35 70° WSW
Cosmos 1821 Rocket 4.1 17:31:56 10° N 17:38:13 79° W 17:44:32 10° S
Cosmos 1939 Rocket 4.3 17:34:42 10° SSW 17:38:19 38° W 17:42:01 10° NNW
CZ-4 R/B 1.9 17:41:27 49° NNW 17:41:27 49° NNW 17:44:31 10° NNW
Meteor 1-11 Rocket 3.6 17:35:35 10° N 17:41:24 75° ENE 17:47:18 10° SSE
PSLV R/B 4.0 17:42:19 73° W 17:42:19 73° W 17:46:15 10° SSW
NOSS 3-3 (A) 4.4 17:35:14 10° NW 17:42:45 85° NE 17:47:58 26° SE
NOSS 3-3 (C) 4.4 17:35:19 10° NW 17:42:51 84° NE 17:47:58 27° SE
CSL-04 Rocket 3.9 17:44:04 50° NNE 17:44:04 50° NNE 17:48:13 10° N
Cosmos 44 Rocket 3.4 17:38:53 10° NW 17:44:05 85° SW 17:45:08 58° SSE
BREEZE-M DEB (TANK) 3.9 17:41:10 10° SW 17:42:53 22° SSW 17:42:53 22° SSW
Lacrosse 4 Rocket 3.5 17:45:56 10° S 17:46:59 17° S 17:46:59 17° S
Cosmos 1680 Rocket 3.3 17:44:54 10° SSW 17:50:11 83° ESE 17:50:18 82° E
Cosmos 1603 4.2 17:49:12 10° SW 17:54:42 56° WNW 17:56:56 34° N
Cosmos 1943 3.6 17:52:28 10° SW 17:58:04 60° WNW 17:59:58 40° N
Cosmos 2369 Rocket 3.9 17:54:45 10° NW 17:59:41 31° WSW 18:04:35 10° SSW
Okean-O 3.6 17:59:11 10° S 18:03:27 47° W 18:07:44 10° NNW
ARGOS 4.3 18:08:31 33° N 18:08:31 33° N 18:11:26 10° NNW
CENTAUR R/B 2.4 18:02:25 10° SSW 18:07:45 70° SSE 18:07:45 70° SSE
ISS -0.8 18:05:19 10° WNW 18:05:55 14° WNW 18:05:55 14° WNW
Cosmos 2112 Rocket 4.3 18:05:30 10° SSW 18:09:53 61° SW 18:09:53 61° SW
Cosmos 2056 Rocket 4.4 18:06:04 10° NNW 18:09:28 41° NNW 18:09:28 41° NNW
NOSS 3-2 (C) 3.6 18:10:46 10° SSW 18:15:09 58° SSW 18:15:09 58° SSW
Meteor 1-27 Rocket 4.3 18:16:06 10° SSW 18:20:11 50° SW 18:20:11 50° SW
NOSS 3-2 (A) 4.2 18:36:27 10° WSW 18:41:27 48° WNW 18:41:27 48° WNW
USA 215 3.6 18:46:42 62° WNW 18:46:42 62° WNW 18:52:19 10° WSW
H-2A R/B 4.4 19:15:55 19° W 19:15:55 19° W 19:18:59 10° NW
USA 267 4.5 19:21:33 36° WNW 19:21:33 36° WNW 19:25:27 10° WNW
